Tracking 35237 objects as of 6-Sep-2026
HD Live streaming from Space Station
objects crossing your sky now

FLOCK 4G 17

Track FLOCK 4G 17 now!
10-day predictions
FLOCK 4G 17 is classified as:


NORAD ID: 62681
Int'l Code: 2025-009CA
Launch date: January 14, 2025
Source: United States (US)
Launch site: AIR FORCE WESTERN TEST RANGE (AFWTR)
Your satellite tracking list
Your tracking list is empty




NASA's NSSDC Master Catalog

Two Line Element Set (TLE):
1 62681U 25009CA  26248.69216352  .00006643  00000-0  22426-3 0  9993
2 62681  97.3875 329.6784 0005567  59.7358 300.4433 15.31007147148866
Source of the keplerian elements: AFSPC